Orbital Elements at Epoch 2459000.5 (2020-May-31.0) TDB
Reference: JPL 19 (heliocentric ecliptic J2000)
Element | Value | Uncertainty (1-sigma) | Units |
e | .1632375585463182 | 5.7016e-08 | |
a | 2.396357687188079 | 1.4892e-08 | au |
q | 2.005182108927796 | 1.3421e-07 | au |
i | 4.134432790227653 | 6.8112e-06 | deg |
node | 221.5451368411758 | 6.2797e-05 | deg |
peri | 147.2910036449427 | 6.5121e-05 | deg |
M | 351.5005170316391 | 1.6355e-05 | deg |
tp | 2459032.490122118729 (2020-Jul-01.99012212) | 6.1664e-05 | TDB |
period | 1354.958178704751 3.71 | 1.263e-05 3.458e-08 | d yr |
n | .2656908572219814 | 2.4766e-09 | deg/d |
Q | 2.787533265448363 | 1.7323e-08 | au |
|
| | Orbit Determination Parameters
Additional Information
|